カタログに戻る

CZ-6A DEB

運用中PO
NORAD 61383·DEBRIS·🇨🇳 China

打ち上げ Aug 6, 2024 から Taiyuan Satellite Launch Center

Loading…

次のパス (今後24時間)

TLE

最新Source: Space-Track

元期: Sep 14, 2026, 10:50 UTC

1 61383U 24140WY  26257.45158667  .00001223  00000-0  64062-3 0  9995
2 61383  88.9893 265.3529 0092141 303.4085  55.8311 14.11587103104188

AllMySatでCZ-6A DEBをリアルタイム追跡

Download on the App Store